This demonstration page uses our WeatherBlox Daily Observations layout. Learn more.

Left ArrowRight Arrow

39.51506, -84.39828

Hourly Observations for February 3, 2016

Temp ( °F °C ) Dew Point ( °F °C ) Humidity (%) Winds ( mph kmh ) Pressure ( in mb ) Visibility ( mi km ) Precip ( " mm )
12:15 am 00:15 Cloudy with Light Rain 61 16 56 13.1 83 83 S 15 24 29.59 1002 10 16 0.00 0.00
12:35 am 00:35 Cloudy with Heavy Rain 61 16 56 13.2 84 84 W 21 33 29.65 1004 7 11 0.00 0.00
12:55 am 00:55 Cloudy with Rain 60 15.3 56 13.1 87 87 S 12 19 29.62 1003 7 11 0.00 0.00
1:15 am 01:15 Cloudy with Rain 60 15.3 56 13.2 87 87 SSW 13 20 29.62 1003 4 6 0.00 0.00
1:35 am 01:35 Cloudy with Rain 60 15.3 56 13.2 87 87 S 13 20 29.59 1002 10 16 0.00 0.00
1:55 am 01:55 Cloudy with Heavy Rain 60 15.3 56 13.2 87 87 S 14 22 29.59 1002 7 11 0.00 0.00
2:15 am 02:15 Cloudy with Rain 60 15.3 56 13.2 87 87 S 14 22 29.59 1002 7 11 0.00 0.00
2:35 am 02:35 Cloudy with Rain 60 15.3 55 13 86 86 SSW 17 28 29.59 1002 10 16 0.00 0.00
2:55 am 02:55 Cloudy with Rain 60 15.3 54 12.3 82 82 S 13 20 29.56 1001 10 16 0.00 0.00
3:15 am 03:15 Partly Cloudy 60 15.3 55 12.5 84 84 SW 13 20 29.62 1003 10 16 0.00 0.00
3:35 am 03:35 Partly Cloudy 60 15.3 55 12.6 84 84 SSW 8 13 29.62 1003 10 16 0.00 0.00
3:55 am 03:55 Partly Cloudy 60 15.3 55 12.6 84 84 SW 7 11 29.59 1002 10 16 0.00 0.00
4:15 am 04:15 Mostly Cloudy 60 15.3 55 12.8 85 85 S 9 15 29.56 1001 10 16 0.00 0.00
4:35 am 04:35 Mostly Cloudy 60 15.3 55 12.7 85 85 SSW 10 17 29.59 1002 10 16 0.00 0.00
4:55 am 04:55 Mostly Cloudy 60 15.3 55 12.5 84 84 SSW 12 19 29.59 1002 10 16 0.00 0.00
5:15 am 05:15 Mostly Cloudy 60 15.3 55 12.5 84 84 SSW 12 19 29.59 1002 10 16 0.00 0.00
5:35 am 05:35 Cloudy 60 15.3 54 12.4 83 83 SSW 9 15 29.62 1003 10 16 0.00 0.00
5:55 am 05:55 Cloudy 60 15.3 55 12.5 84 84 SSW 10 17 29.62 1003 10 16 0.00 0.00
6:15 am 06:15 Cloudy 60 15.3 54 12.4 83 83 WSW 9 15 29.62 1003 10 16 0.00 0.00
6:35 am 06:35 Partly Cloudy 60 15.3 55 12.5 84 84 SW 13 20 29.65 1004 10 16 0.00 0.00
6:55 am 06:55 Clear 60 15.3 54 12.3 82 82 SW 12 19 29.65 1004 10 16 0.00 0.00
7:15 am 07:15 Clear 57 14.1 51 10.8 81 81 WSW 8 13 29.65 1004 10 16 0.00 0.00
7:35 am 07:35 Clear 57 13.8 48 9.1 73 73 SW 12 19 29.68 1005 10 16 0.00 0.00
7:55 am 07:55 Sunny 56 13.4 44 6.9 65 65 WSW 10 17 29.68 1005 10 16 0.00 0.00
8:15 am 08:15 Sunny 56 13.5 43 6.1 61 61 SW 12 19 29.68 1005 10 16 0.00 0.00
8:35 am 08:35 Partly Cloudy 57 13.8 42 5.4 57 57 SW 12 19 29.68 1005 10 16 0.00 0.00
8:55 am 08:55 Partly Cloudy 55 12.6 41 4.8 59 59 SW 7 11 29.68 1005 10 16 0.00 0.00
9:15 am 09:15 Sunny 55 12.5 42 5.6 63 63 SSW 7 11 29.68 1005 10 16 0.00 0.00
9:35 am 09:35 Sunny 57 13.8 44 6.6 62 62 SSW 10 17 29.71 1006 10 16 0.00 0.00
9:55 am 09:55 Sunny 60 15.3 44 6.6 56 56 SW 16 26 29.71 1006 10 16 0.00 0.00
10:15 am 10:15 Sunny 60 15.3 40 4.4 48 48 SW 20 31 29.71 1006 10 16 0.00 0.00
10:35 am 10:35 Sunny 60 15.3 35 1.8 40 40 SW 22 35 29.71 1006 10 16 0.00 0.00
10:55 am 10:55 Sunny 60 15.3 33 0.4 36 36 SW 23 37 29.71 1006 10 16 0.00 0.00
11:15 am 11:15 Sunny 60 15.3 32 0 35 35 SW 23 37 29.71 1006 10 16 0.00 0.00
11:35 am 11:35 Sunny 60 15.3 32 0 35 35 SW 24 39 29.74 1007 10 16 0.00 0.00
11:55 am 11:55 Sunny 60 15.3 32 -0.2 35 35 SW 17 28 29.74 1007 10 16 0.00 0.00
12:15 pm 12:15 Sunny 60 15.3 30 -0.9 33 33 WSW 22 35 29.74 1007 10 16 0.00 0.00
12:35 pm 12:35 Sunny 60 15.3 31 -0.8 33 33 WSW 24 39 29.71 1006 10 16 0.00 0.00
12:55 pm 12:55 Sunny 60 15.3 30 -1.3 32 32 W 21 33 29.74 1007 10 16 0.00 0.00
1:15 pm 13:15 Sunny 60 15.3 29 -1.6 32 32 WSW 25 41 29.74 1007 10 16 0.00 0.00
1:35 pm 13:35 Sunny 60 15.3 29 -1.8 31 31 WSW 23 37 29.74 1007 10 16 0.00 0.00
1:55 pm 13:55 Partly Cloudy 58 14.7 33 0.4 38 38 W 20 31 29.74 1007 10 16 0.00 0.00
2:15 pm 14:15 Partly Cloudy 57 14.1 32 -0.2 38 38 W 23 37 29.74 1007 10 16 0.00 0.00
2:35 pm 14:35 Sunny 57 13.8 31 -0.8 37 37 W 20 31 29.77 1008 10 16 0.00 0.00
2:55 pm 14:55 Sunny 57 13.8 31 -0.7 37 37 W 21 33 29.77 1008 10 16 0.00 0.00
3:15 pm 15:15 Sunny 57 13.8 31 -0.3 38 38 W 20 31 29.77 1008 10 16 0.00 0.00
3:35 pm 15:35 Sunny 55 12.7 26 -3.3 33 33 WSW 22 35 29.83 1010 10 16 0.00 0.00
3:55 pm 15:55 Sunny 55 12.5 27 -2.6 35 35 W 18 30 29.85 1011 10 16 0.00 0.00
4:15 pm 16:15 Sunny 55 12.5 29 -1.7 38 38 W 22 35 29.85 1011 10 16 0.00 0.00
4:35 pm 16:35 Sunny 55 12.5 30 -1 40 40 W 20 31 29.85 1011 10 16 0.00 0.00
4:55 pm 16:55 Sunny 51 10.3 28 -2 43 43 W 21 33 29.85 1011 10 16 0.00 0.00
5:15 pm 17:15 Sunny 49 9.6 29 -1.5 46 46 W 21 33 29.88 1012 10 16 0.00 0.00
5:35 pm 17:35 Sunny 49 9.6 31 -0.3 50 50 W 16 26 29.91 1013 10 16 0.00 0.00
5:55 pm 17:55 Sunny 47 8.2 31 -0.7 54 54 W 17 28 29.91 1013 10 16 0.00 0.00
6:15 pm 18:15 Clear 43 6.2 29 -1.5 58 58 W 20 31 29.91 1013 10 16 0.00 0.00
6:35 pm 18:35 Partly Cloudy 43 6.1 28 -2.1 56 56 W 16 26 29.94 1014 10 16 0.00 0.00
6:55 pm 18:55 Partly Cloudy 43 6 28 -2.3 56 56 W 17 28 29.94 1014 10 16 0.00 0.00
7:15 pm 19:15 Clear 42 5.7 28 -2.1 58 58 W 14 22 29.97 1015 10 16 0.00 0.00
7:35 pm 19:35 Mostly Cloudy 42 5.6 29 -1.7 60 60 W 10 17 29.97 1015 10 16 0.00 0.00
7:55 pm 19:55 Cloudy 42 5.6 29 -1.4 61 61 W 10 17 29.97 1015 10 16 0.00 0.00
8:15 pm 20:15 Cloudy 42 5.5 29 -1.6 61 61 W 12 19 30.00 1016 10 16 0.00 0.00
8:35 pm 20:35 Cloudy 42 5.5 29 -1.5 61 61 W 14 22 30.00 1016 10 16 0.00 0.00
8:55 pm 20:55 Cloudy 42 5.5 29 -1.5 61 61 W 12 19 30.00 1016 10 16 0.00 0.00
9:15 pm 21:15 Cloudy 40 4.7 29 -1.7 64 64 W 20 31 30.00 1016 10 16 0.00 0.00
9:35 pm 21:35 Cloudy 40 4.7 30 -1.3 65 65 W 13 20 30.03 1017 10 16 0.00 0.00
9:55 pm 21:55 Cloudy 40 4.2 30 -0.9 70 70 W 18 30 30.03 1017 10 16 0.00 0.00
10:15 pm 22:15 Cloudy 39 4 32 -0.2 74 74 W 10 17 30.03 1017 7 11 0.00 0.00
10:35 pm 22:35 Cloudy 39 4 32 -0.1 75 75 W 8 13 30.03 1017 10 16 0.00 0.00
10:55 pm 22:55 Cloudy 39 4 31 -0.3 74 74 W 9 15 30.09 1019 10 16 0.00 0.00
11:15 pm 23:15 Cloudy 38 3.5 30 -1.2 72 72 W 14 22 30.09 1019 10 16 0.00 0.00
11:35 pm 23:35 Cloudy 37 2.6 29 -1.6 74 74 W 12 19 30.09 1019 10 16 0.00 0.00
11:55 pm 23:55 Cloudy 37 2.6 28 -2 72 72 W 12 19 30.09 1019 10 16 0.00 0.00

Powered by AerisWeather